This demonstration page uses our WeatherBlox Daily Observations layout. Learn more.

Left ArrowRight Arrow

31.84235, -102.49876

Hourly Observations for August 11, 2022

Temp ( °F °C ) Dew Point ( °F °C ) Humidity (%) Winds ( mph kmh ) Pressure ( in mb ) Visibility ( mi km ) Precip ( " mm )
12:53 am 00:53 Clear 80 26.7 62 16.7 54 54 SSE 9 15 30.05 1018 10 16 0.00 0.00
1:53 am 01:53 Clear 80 26.7 61 16.1 52 52 SE 6 9 30.03 1017 10 16 0.00 0.00
2:53 am 02:53 Clear 79 26.1 61 16.1 54 54 NE 6 9 30.03 1017 10 16 0.00 0.00
3:53 am 03:53 Clear 79 26.1 61 16.1 54 54 ENE 6 9 30.02 1017 10 16 0.00 0.00
4:53 am 04:53 Partly Cloudy 78 25.6 61 16.1 56 56 E 3 6 30.01 1016 10 16 0.00 0.00
5:53 am 05:53 Clear 78 25.6 61 16.1 56 56 E 5 7 30.01 1016 10 16 0.00 0.00
6:53 am 06:53 Mostly Cloudy 78 25.6 61 16.1 56 56 ESE 5 7 30.02 1017 10 16 0.00 0.00
7:53 am 07:53 Sunny 78 25.6 62 16.7 58 58 ESE 6 9 30.03 1017 10 16 0.00 0.00
8:53 am 08:53 Sunny 80 26.7 61 16.1 52 52 E 6 9 30.04 1017 10 16 0.00 0.00
9:53 am 09:53 Sunny 83 28.3 62 16.7 49 49 ESE 7 11 30.04 1017 10 16 0.00 0.00
10:53 am 10:53 Sunny 86 30 61 16.1 43 43 NNW 3 6 30.05 1018 10 16 0.00 0.00
11:53 am 11:53 Sunny 90 32.2 60 15.6 37 37 ENE 7 11 30.05 1018 10 16 0.00 0.00
12:53 pm 12:53 Sunny 88 31.1 59 15 38 38 ESE 7 11 30.03 1017 10 16 0.00 0.00
1:53 pm 13:53 Sunny 91 32.8 59 15 34 34 ESE 10 17 30.00 1016 10 16 0.00 0.00
2:53 pm 14:53 Mostly Sunny 93 33.9 58 14.4 31 31 E 9 15 29.97 1015 10 16 0.00 0.00
3:53 pm 15:53 Sunny 94 34.4 58 14.4 30 30 NNE 7 11 29.95 1014 10 16 0.00 0.00
4:53 pm 16:53 Sunny 96 35.6 54 12.2 24 24 undefined N/A 29.92 1013 10 16 0.00 0.00
5:53 pm 17:53 Mostly Sunny 96 35.6 54 12.2 24 24 ESE 15 24 29.89 1012 10 16 0.00 0.00
6:53 pm 18:53 Sunny 94 34.4 52 11.1 24 24 ENE 8 13 29.89 1012 10 16 0.00 0.00
7:53 pm 19:53 Sunny 93 33.9 52 11.1 25 25 E 8 13 29.90 1013 10 16 0.00 0.00
8:53 pm 20:53 Mostly Cloudy 89 31.7 59 15 36 36 SSW 14 22 29.93 1014 10 16 0.00 0.00
9:53 pm 21:53 Clear 82 27.8 60 15.6 47 47 WSW 14 22 29.98 1015 10 16 0.00 0.00
10:53 pm 22:53 Mostly Clear 79 26.1 61 16.1 54 54 WNW 12 19 30.01 1016 10 16 0.00 0.00
11:53 pm 23:53 Clear 77 25 62 16.7 60 60 WNW 14 22 29.99 1016 10 16 0.00 0.00

Powered by AerisWeather